Location: Unspecified
(0.0000°N, 0.0000°E)
Time: 20:57:17
(UTC+00:00)

S-56A Canister/Altair - Visible Passes

Search period start: 23 January 2017 00:00
Search period end: 02 February 2017 00:00
Orbit: 639 x 2495 km, 38.9° (Epoch: 22 January)

Date Brightness Start Highest point End Pass type
(mag) Time Alt. Az. Time Alt. Az. Time Alt. Az.
23 Jan 10.4 20:52:05 10° S 20:59:01 26° SE 20:59:01 26° SE visible
23 Jan 11.0 22:54:15 10° SW 22:56:26 19° SW 22:56:26 19° SW visible
24 Jan 10.5 20:20:24 10° S 20:27:22 22° SE 20:28:05 21° SE visible
24 Jan 10.6 22:21:45 10° SW 22:25:30 28° SW 22:25:30 28° SW visible
25 Jan 10.6 19:49:02 10° S 19:54:33 17° SE 19:57:12 15° ESE visible
25 Jan 10.2 21:49:24 10° SW 21:54:38 39° SSW 21:54:38 39° SSW visible
26 Jan 10.7 19:18:21 10° SSE 19:21:46 12° SE 19:25:38 10° ESE visible
26 Jan 9.8 21:17:09 10° SW 21:23:51 48° S 21:23:51 48° S visible
27 Jan 9.5 20:45:01 10° SSW 20:53:08 50° SSE 20:53:08 50° SSE visible
27 Jan 11.1 22:49:05 10° WSW 22:50:34 16° WSW 22:50:34 16° WSW visible
28 Jan 9.6 20:13:01 10° SSW 20:21:08 42° SE 20:22:29 41° ESE visible
28 Jan 10.6 22:16:24 10° WSW 22:19:56 27° WSW 22:19:56 27° WSW visible
29 Jan 9.7 19:41:07 10° SSW 19:48:27 35° SE 19:51:55 29° E visible
29 Jan 10.0 21:43:51 10° WSW 21:49:22 42° WSW 21:49:22 42° WSW visible
30 Jan 9.9 19:09:23 10° S 19:15:50 28° SE 19:21:24 18° E visible
30 Jan 9.4 21:11:25 10° SW 21:18:51 65° W 21:18:51 65° W visible
31 Jan 10.0 18:37:50 10° S 18:43:17 21° SE 18:50:22 10° E visible
31 Jan 9.0 20:39:05 10° SW 20:47:40 85° NW 20:48:25 79° NNE visible
31 Jan 11.3 22:45:37 10° W 22:45:54 11° W 22:45:54 11° W visible
01 Feb 11.2 05:23:35 10° N 05:30:05 15° NNE 05:35:39 10° NE visible
01 Feb 8.9 20:06:52 10° SW 20:14:52 84° SE 20:18:02 52° NE visible
01 Feb 10.9 22:12:36 10° W 22:15:31 20° WNW 22:15:31 20° WNW visible
